This is the latest recevied weather packets stored in our database for station/object DL5TW-13. If no packets are shown the sender has not sent any weather packets the latest 10 day(s).
| Time | Temp. | Humidity | Pressure | Rain* | Wind** | Luminosity | Snow |
|---|---|---|---|---|---|---|---|
| 1777724750 | 26.67° C | 23% | 1015.2 hPa | 0 mm | - | - | - |
| 1777724450 | 26.67° C | 23% | 1015.3 hPa | 0 mm | - | - | - |
| 1777724149 | 26.67° C | 23% | 1015.4 hPa | 0 mm | - | - | - |
| 1777723849 | 26.67° C | 23% | 1015.5 hPa | 0 mm | - | - | - |
| 1777723549 | 27.22° C | 23% | 1015.4 hPa | 0 mm | - | - | - |
| 1777723248 | 27.22° C | 23% | 1015.5 hPa | 0 mm | - | - | - |
| 1777722948 | 27.22° C | 23% | 1015.6 hPa | 0 mm | - | - | - |
| 1777722648 | 26.67° C | 23% | 1015.8 hPa | 0 mm | - | - | - |
| 1777722348 | 27.22° C | 23% | 1015.9 hPa | 0 mm | - | - | - |
| 1777722047 | 27.78° C | 24% | 1015.9 hPa | 0 mm | - | - | - |
| 1777721747 | 27.22° C | 24% | 1016 hPa | 0 mm | - | - | - |
| 1777721447 | 27.22° C | 24% | 1016.1 hPa | 0 mm | - | - | - |
| 1777721146 | 26.67° C | 26% | 1016 hPa | 0 mm | - | - | - |
| 1777720846 | 26.67° C | 26% | 1016.1 hPa | 0 mm | - | - | - |
| 1777720546 | 26.67° C | 26% | 1016.2 hPa | 0 mm | - | - | - |
| 1777720246 | 26.67° C | 26% | 1016.4 hPa | 0 mm | - | - | - |
| 1777719945 | 26.67° C | 26% | 1016.4 hPa | 0 mm | - | - | - |
| 1777719645 | 26.11° C | 27% | 1016.4 hPa | 0 mm | - | - | - |
| 1777719345 | 26.11° C | 27% | 1016.5 hPa | 0 mm | - | - | - |
| 1777719044 | 25.56° C | 28% | 1016.4 hPa | 0 mm | - | - | - |
| 1777718744 | 25.56° C | 28% | 1016.5 hPa | 0 mm | - | - | - |
| 1777718444 | 25° C | 28% | 1016.5 hPa | 0 mm | - | - | - |
| 1777718144 | 24.44° C | 28% | 1016.5 hPa | 0 mm | - | - | - |
| 1777717843 | 24.44° C | 28% | 1016.8 hPa | 0 mm | - | - | - |
| 1777717543 | 24.44° C | 27% | 1016.8 hPa | 0 mm | - | - | - |
* Rain latest hour (hover to see other rain measurements)
** Current wind speed in m/s (hover to see current wind gust speed)